Regional Weather Roundup
Issued by NWS

Home | Current Version | Previous Version | Graphics & Text | Print | Product List | Glossary On
Versions: 1 2 3 4 5 6 7 8 9 10 11 12 13 14 15 16 17 18 19 20 21 22 23 24 25 26 27
000
ASUS45 KBOU 171310
RWRCO

WEATHER ROUNDUP FOR COLORADO
NATIONAL WEATHER SERVICE DENVER/BOULDER CO
600 AM MST FRI NOV 17 2017

NOTE: "FAIR" INDICATES FEW OR NO CLOUDS BELOW 12000 FEET WITH NO
SIGNIFICANT WEATHER AND/OR OBSTRUCTIONS TO VISIBILITY.

COZ001>005-013-030-031-171400-
...NORTHWEST COLORADO...

CITY           SKY/WX    TMP DP  RH WIND       PRES   REMARKS
CRAIG          CLOUDY    54  27  35 SW24G33   29.72F
HAYDEN         CLOUDY    52  28  39 W28G33    29.73F
MEEKER         CLOUDY    54  29  38 SW29G37   29.76F
RABBIT EARS PA CLOUDY    34  27  75 W16G30    29.83F WCI  23
STEAMBOAT SPGS CLOUDY    50  28  43 SW16G23   29.75F
WALDEN         CLOUDY    43  27  52 SW18G30   29.77F
$$

COZ006>008-011-171400-
...WEST CENTRAL VALLEYS...

CITY           SKY/WX    TMP DP  RH WIND       PRES   REMARKS
GRAND JUNCTION FAIR      56  29  35 VRB6      29.78F
MONTROSE       FAIR      55  32  41 SW23G31   29.89S
EAGLE          LGT RAIN  52  31  44 SW22      29.82R
RIFLE          CLOUDY    55  28  35 W12       29.78F
DELTA          MOCLDY    60  29  31 SW10G16   29.85F
NUCLA          MOCLDY    55  30  38 SW16G29   29.94S
$$

COZ017>023-064>068-171400-
...SOUTHWEST COLORADO...

CITY           SKY/WX    TMP DP  RH WIND       PRES   REMARKS
DURANGO        CLOUDY    43  28  55 CALM      30.02F
CORTEZ         FAIR      50  30  46 SW7       29.99F
PAGOSA SPRINGS CLOUDY    46  29  53 SW5       30.05F
TELLURIDE      CLOUDY    46  27  47 SW14G35   30.05S
WOLF CREEK PAS LGT SNOW  27  27 100 S23G36    30.15S WCI  12
$$

COZ009-010-012-014-032>034-037-058>063-171400-
...CENTRAL COLORADO...

CITY           SKY/WX    TMP DP  RH WIND       PRES   REMARKS
ASPEN          CLOUDY    43  34  70 E12       29.87R
BUENA VISTA    RAIN      39  37  91 SE12G17   29.89F
COPPER MTN     LGT SNOW  32  28  86 MISG      29.95F VSB 3/4
BERTHOUD PASS  LGT SNOW  25  14  63 W26G51    29.92R WCI   9
COTTONWOOD PAS LGT SNOW  39  36  87 NW6       29.93F
GUNNISON       LGT RAIN  46  32  58 W22G35    29.91F
KREMMLING      CLOUDY    54  28  37 SW14G31   29.80S
LEADVILLE      LGT SNOW  32  29  88 E3        29.91F FOG
MONARCH PASS     N/A     30  28  93 SW44G101  30.05F WCI  13
SALIDA         CLOUDY    44  37  78 SW10      29.98S
SUNLIGHT       CLOUDY    32  25  74 SW25G45   29.94F WCI  19
WILKERSON PASS SNOW      30  28  93 SW14G26   29.97S VSB 1/4 WCI  20
$$

COZ069>075-171400-
...SAN LUIS VALLEY/SANGRE DE CRISTO MOUNTAINS...

CITY           SKY/WX    TMP DP  RH WIND       PRES   REMARKS
ALAMOSA        FAIR      43  31  62 SW15G29   29.96F
DEL NORTE      FAIR      46  27  47 SW28G33   29.97S
LA VETA PASS   MOCLDY    34  28  80 S22G44      N/A  WCI  22
SAGUACHE       CLOUDY    36  30  80 NW5       29.96S
$$

COZ035-036-038>040-171400-
...NORTHERN COLORADO FRONT RANGE...

CITY           SKY/WX    TMP DP  RH WIND       PRES   REMARKS
DENVER INTL AP FAIR      54  27  35 SW18      29.66F
DMNS CITY PARK   N/A     55  26  32 S8        29.69R
AURORA         MOCLDY    55  29  37 SW18      29.69F
FRONT RANGE AP FAIR      56  28  35 SW16G22   29.67F
ERIE MUNI ARPT FAIR      50  28  42 SW6       29.72R
BOULDER MUN AP FAIR      55  28  35 SW3       29.67R
CENTENNIAL     FAIR      52  31  44 SW16      29.72S
BROOMFIELD     PTCLDY    57  28  33 SW14      29.70S
FORT COLLINS   FAIR      59  31  34 W24G32    29.63S
LONGMONT       FAIR      55  29  36 W8        29.68R
$$

COZ041-046-047-076>085-087-088-171400-
...PIKES PEAK/PALMER DIVIDE AND SOUTHERN FOOTHILLS...

CITY           SKY/WX    TMP DP  RH WIND       PRES   REMARKS
COLO. SPRINGS  FAIR      55  31  39 W17G29    29.80F
A. F. ACADEMY  FAIR      54  29  38 SW18G28   29.79S
SCHRIEVER AFB  FAIR      54  28  36 W29G35    29.77S
CHEYENNE MTN   FAIR      52  30  43 S18G38    29.76S
ELLICOTT         N/A    N/A N/A N/A W8        29.78S
FALCON         FAIR      49  27  42 W14       29.80F
FORT CARSON    FAIR      53  31  42 SW17      29.78S
LIMON          FAIR      57  30  35 W15G30    29.68F
MONUMENT HILL  FAIR      46  30  53 W20G28    29.80R
CANON CITY     FAIR      46  32  57 NW7       29.80S
WALSENBURG     FAIR      55  32  41 SW16G26   29.88F
TRINIDAD       FAIR      59  30  33 W31G40    29.81F
$$

COZ042>045-048>051-090-091-171400-
...NORTHEAST COLORADO...

CITY           SKY/WX    TMP DP  RH WIND       PRES   REMARKS
GREELEY ARPT   FAIR      46  28  49 SE5       29.65R
AKRON          FAIR      52  27  38 SW10      29.63F
BURLINGTON     FAIR      51  30  44 SW12      29.66F
WRAY           NOT AVBL
YUMA           FAIR      43  30  61 SW8       29.63R
STERLING       FAIR      34  28  80 N5        29.61R WCI  30
HOLYOKE        FAIR      43  32  65 W6        29.61F
FORT MORGAN    FAIR      40  28  61 N8        29.63S
$$

COZ086-089-092>099-171400-
...SOUTHEAST COLORADO...

CITY           SKY/WX    TMP DP  RH WIND       PRES   REMARKS
PUEBLO         FAIR      50  29  44 W7        29.75R
LA JUNTA       FAIR      60  32  34 W18G28    29.72R
LAMAR          FAIR      44  27  51 S6        29.69S
SPRINGFIELD      N/A     46  29  51 SW12      29.77S
$$




USA.gov is the U.S. government's official web portal to all federal, state and local government web resources and services.